sat.trackr.live / text

‹ back to catalog

STARLINK-33534

NORAD 63499 · 2025-071G

PAYLOAD ACTIVE UNKNOWN

§ Identity

Operator
Country
US
Launch date
2025-04-07
Launch site
AFWTR
Launch vehicle
Mass (kg)
RCS (m²)

Purposes: comms

External: N2YO · Heavens-Above · Gunter

§ Orbital elements

Epoch: 2026-09-20T20:50:44.158560Z

Period
94.01 min
Inclination
53.1594°
Eccentricity
0.0000913
Mean motion
15.31713491 rev/d
Perigee alt
470.1 km
Apogee alt
471.3 km
Semi-major
6,848.8 km
B*
2.9315e-4
RAAN
311.8491°
Arg perigee
77.8763°
Mean anomaly
282.2340°
Rev number
8,265

§ Raw data

STARLINK-335341 63499U 25071G   26263.86856665  .00008746  00000+0  29315-3 0  99922 63499  53.1594 311.8491 0000913  77.8763 282.2340 15.31713491 82655

JSON: /api/v1/satellites/63499 · /tle

For live sub-satellite position, see the globe view (requires WebGL).

§ Visibility from observer

Set your observer location to see the next 7 days of passes ≥ 10°. The values pass through the URL so the page stays shareable.

No JS? Fill the form by hand. The geolocation button needs JavaScript.